Time,TemperatureF,DewpointF,PressureIn,WindDirection,WindDirectionDegrees,WindSpeedMPH,WindSpeedGustMPH,Humidity,HourlyPrecipIn,Conditions,Clouds,dailyrainin,SoftwareType,DateUTC
2015-03-02 00:05:00,17.2,16.3,29.99,WSW,247,3.8,-999.0,96,-99.99,,,0.00,Acu-Link.com,2015-03-02 07:05:00,
2015-03-02 00:20:00,17.2,16.1,29.99,SSW,202,3.8,-999.0,95,-99.99,,,0.00,Acu-Link.com,2015-03-02 07:20:00,
2015-03-02 00:35:00,17.2,16.1,29.98,SSW,202,5.8,-999.0,95,-99.99,,,0.00,Acu-Link.com,2015-03-02 07:35:00,
2015-03-02 00:51:00,17.2,16.1,29.98,SSW,202,5.8,-999.0,95,-99.99,,,0.00,Acu-Link.com,2015-03-02 07:51:00,
2015-03-02 01:06:00,17.2,16.1,29.98,West,270,3.8,-999.0,95,-99.99,,,0.00,Acu-Link.com,2015-03-02 08:06:00,
2015-03-02 01:21:00,17.1,15.9,29.96,WSW,247,6.7,-999.0,95,-99.99,,,0.00,Acu-Link.com,2015-03-02 08:21:00,
2015-03-02 01:36:00,16.9,15.9,29.96,SSW,202,6.7,-999.0,96,-99.99,,,0.00,Acu-Link.com,2015-03-02 08:36:00,
2015-03-02 01:51:00,16.7,16.0,29.95,SSW,202,9.4,-999.0,97,-99.99,,,0.00,Acu-Link.com,2015-03-02 08:51:00,
2015-03-02 02:06:00,16.7,16.0,29.94,SW,225,6.3,-999.0,97,-99.99,,,0.00,Acu-Link.com,2015-03-02 09:06:00,
2015-03-02 02:21:00,16.7,16.0,29.94,SW,225,5.1,-999.0,97,-99.99,,,0.00,Acu-Link.com,2015-03-02 09:21:00,
2015-03-02 02:36:00,16.7,16.0,29.93,WSW,247,11.9,-999.0,97,-99.99,,,0.00,Acu-Link.com,2015-03-02 09:36:00,
2015-03-02 02:52:00,16.7,16.0,29.92,WSW,247,7.4,-999.0,97,-99.99,,,0.00,Acu-Link.com,2015-03-02 09:52:00,
2015-03-02 03:07:00,16.7,16.0,29.91,SW,225,7.8,-999.0,97,-99.99,,,0.00,Acu-Link.com,2015-03-02 10:07:00,
2015-03-02 03:22:00,16.7,16.0,29.89,SSW,202,6.3,-999.0,97,-99.99,,,0.00,Acu-Link.com,2015-03-02 10:22:00,
2015-03-02 03:38:00,16.7,16.0,29.88,SSW,202,5.8,-999.0,97,-99.99,,,0.00,Acu-Link.com,2015-03-02 10:38:00,
2015-03-02 03:53:00,16.5,15.8,29.88,SW,225,6.7,-999.0,97,-99.99,,,0.00,Acu-Link.com,2015-03-02 10:53:00,
2015-03-02 04:08:00,16.5,15.8,29.88,South,180,7.8,-999.0,97,-99.99,,,0.00,Acu-Link.com,2015-03-02 11:08:00,
2015-03-02 04:23:00,16.5,15.8,29.87,SSW,202,4.3,-999.0,97,-99.99,,,0.00,Acu-Link.com,2015-03-02 11:23:00,
2015-03-02 04:38:00,16.5,15.8,29.87,SSW,202,4.3,-999.0,97,-99.99,,,0.00,Acu-Link.com,2015-03-02 11:38:00,
2015-03-02 04:53:00,16.5,15.8,29.87,SSW,202,4.3,-999.0,97,-99.99,,,0.00,Acu-Link.com,2015-03-02 11:53:00,
2015-03-02 05:09:00,16.5,15.8,29.87,SSW,202,4.3,-999.0,97,-99.99,,,0.00,Acu-Link.com,2015-03-02 12:09:00,
2015-03-02 05:24:00,16.9,16.2,29.86,West,270,7.8,-999.0,97,-99.99,,,0.00,Acu-Link.com,2015-03-02 12:24:00,